• In Netherlands
  • List of Countries
  • For 7 days
  • Water Temperature
  • Satellite Maps
  • Weather Map
  • Weather Widgets
  • user-avatar
    Login

    Hourly Weather Neuquén

    Today, 26 April, Wednesday

    Time Temperature Precipitation Wind Pressure Humidity
    00:00 +8°C° 0 mm 9 mps 735 mmHg 53%
    01:00 +8°C° 0 mm 9 mps 735 mmHg 54%
    02:00 +8°C° 0 mm 9 mps 735 mmHg 55%
    03:00 +8°C° 0 mm 9 mps 735 mmHg 55%
    04:00 +8°C° 0 mm 9 mps 734 mmHg 56%
    05:00 +8°C° 0 mm 9 mps 735 mmHg 56%
    06:00 +9°C° 0 mm 8 mps 735 mmHg 57%
    07:00 +9°C° 0 mm 8 mps 735 mmHg 57%
    08:00 +11°C° 0 mm 9 mps 735 mmHg 51%
    09:00 +13°C° 0 mm 10 mps 735 mmHg 44%
    10:00 +15°C° 0 mm 12 mps 735 mmHg 37%
    11:00 +17°C° 0 mm 12 mps 734 mmHg 33%
    12:00 +19°C° 0 mm 11 mps 734 mmHg 29%
    13:00 +21°C° 0 mm 11 mps 734 mmHg 25%
    14:00 +19°C° 0 mm 10 mps 733 mmHg 27%
    15:00 +19°C° 0 mm 9 mps 733 mmHg 29%
    16:00 +18°C° 0 mm 9 mps 733 mmHg 30%
    17:00 +17°C° 0 mm 8 mps 733 mmHg 35%
    18:00 +15°C° 0 mm 8 mps 733 mmHg 40%
    19:00 +13°C° 0 mm 8 mps 733 mmHg 45%
    20:00 +12°C° 0 mm 8 mps 733 mmHg 47%
    21:00 +12°C° 0 mm 8 mps 734 mmHg 50%
    22:00 +11°C° 0 mm 7 mps 734 mmHg 52%
    23:00 +11°C° 0 mm 7 mps 734 mmHg 53%

    Tomorrow, 27 April, Thursday

    Time Temperature Precipitation Wind Pressure Humidity
    00:00 +11°C° 0 mm 6 mps 734 mmHg 54%
    01:00 +11°C° 0 mm 6 mps 734 mmHg 55%
    02:00 +10°C° 0 mm 6 mps 733 mmHg 55%
    03:00 +10°C° 0 mm 6 mps 733 mmHg 56%
    04:00 +10°C° 0 mm 5 mps 733 mmHg 56%
    05:00 +10°C° 0 mm 5 mps 733 mmHg 55%
    06:00 +12°C° 0 mm 5 mps 733 mmHg 54%
    07:00 +12°C° 0 mm 5 mps 732 mmHg 53%
    08:00 +14°C° 0 mm 7 mps 732 mmHg 46%
    09:00 +17°C° 0 mm 8 mps 732 mmHg 40%
    10:00 +19°C° 0 mm 9 mps 732 mmHg 33%
    11:00 +21°C° 0 mm 10 mps 731 mmHg 32%
    12:00 +23°C° 0 mm 12 mps 731 mmHg 30%
    13:00 +24°C° 0 mm 13 mps 730 mmHg 29%
    14:00 +23°C° 0 mm 12 mps 730 mmHg 31%
    15:00 +22°C° 0 mm 12 mps 730 mmHg 34%
    16:00 +21°C° 0 mm 11 mps 730 mmHg 36%
    17:00 +19°C° 0 mm 10 mps 731 mmHg 40%
    18:00 +18°C° 0 mm 8 mps 731 mmHg 44%
    19:00 +17°C° 0 mm 7 mps 732 mmHg 48%
    20:00 +16°C° 0 mm 7 mps 732 mmHg 51%
    21:00 +16°C° 0 mm 6 mps 733 mmHg 54%
    22:00 +15°C° 0 mm 6 mps 733 mmHg 56%
    23:00 +15°C° 0 mm 5 mps 733 mmHg 58%

    Day after tomorrow, 28 April, Friday

    Time Temperature Precipitation Wind Pressure Humidity
    00:00 +15°C° 0 mm 5 mps 734 mmHg 60%
    01:00 +14°C° 0 mm 5 mps 734 mmHg 62%
    02:00 +14°C° 0 mm 5 mps 734 mmHg 64%
    03:00 +14°C° 0 mm 5 mps 734 mmHg 65%
    04:00 +14°C° 0 mm 5 mps 734 mmHg 66%
    05:00 +14°C° 0 mm 5 mps 734 mmHg 67%
    06:00 +14°C° 0 mm 5 mps 735 mmHg 67%
    07:00 +14°C° 0 mm 4 mps 735 mmHg 67%
    08:00 +16°C° 0 mm 6 mps 735 mmHg 59%
    09:00 +18°C° 0 mm 7 mps 736 mmHg 51%
    10:00 +22°C° 0 mm 8 mps 736 mmHg 42%
    11:00 +23°C° 0 mm 8 mps 736 mmHg 40%
    12:00 +23°C° 0 mm 8 mps 736 mmHg 37%
    13:00 +24°C° 0 mm 7 mps 735 mmHg 34%
    14:00 +24°C° 0 mm 6 mps 735 mmHg 35%
    15:00 +23°C° 0 mm 5 mps 735 mmHg 35%
    16:00 +23°C° 0 mm 4 mps 734 mmHg 36%
    17:00 +21°C° 0 mm 4 mps 735 mmHg 41%
    18:00 +20°C° 0 mm 4 mps 735 mmHg 45%
    19:00 +18°C° 0 mm 4 mps 735 mmHg 49%
    20:00 +17°C° 0 mm 5 mps 736 mmHg 51%
    21:00 +16°C° 0 mm 5 mps 736 mmHg 53%
    22:00 +16°C° 0 mm 6 mps 736 mmHg 55%
    23:00 +15°C° 0 mm 5 mps 736 mmHg 56%

    29 April, Saturday

    Time Temperature Precipitation Wind Pressure Humidity
    00:00 +14°C° 0 mm 4 mps 736 mmHg 57%
    01:00 +14°C° 0 mm 4 mps 736 mmHg 58%
    02:00 +14°C° 0 mm 4 mps 736 mmHg 59%
    03:00 +13°C° 0 mm 3 mps 736 mmHg 60%
    04:00 +13°C° 0 mm 3 mps 735 mmHg 60%
    05:00 +13°C° 0 mm 3 mps 736 mmHg 60%
    06:00 +13°C° 0 mm 3 mps 736 mmHg 60%
    07:00 +14°C° 0 mm 3 mps 736 mmHg 60%
    08:00 +17°C° 0 mm 3 mps 736 mmHg 53%
    09:00 +19°C° 0 mm 4 mps 736 mmHg 46%
    10:00 +21°C° 0 mm 4 mps 737 mmHg 38%
    11:00 +22°C° 0 mm 4 mps 736 mmHg 36%
    12:00 +23°C° 0 mm 4 mps 736 mmHg 33%
    13:00 +25°C° 0 mm 4 mps 736 mmHg 30%
    14:00 +25°C° 0 mm 3 mps 735 mmHg 31%
    15:00 +24°C° 0 mm 3 mps 735 mmHg 32%
    16:00 +24°C° 0 mm 2 mps 735 mmHg 34%
    17:00 +21°C° 0 mm 2 mps 735 mmHg 37%
    18:00 +20°C° 0 mm 2 mps 735 mmHg 40%
    19:00 +18°C° 0 mm 2 mps 736 mmHg 44%
    20:00 +18°C° 0 mm 2 mps 736 mmHg 44%
    21:00 +18°C° 0 mm 2 mps 736 mmHg 44%
    22:00 +17°C° 0 mm 2 mps 736 mmHg 44%
    23:00 +17°C° 0 mm 2 mps 736 mmHg 46%

    30 April, Sunday

    Time Temperature Precipitation Wind Pressure Humidity
    00:00 +17°C° 0 mm 2 mps 736 mmHg 47%
    01:00 +16°C° 0 mm 2 mps 735 mmHg 48%
    02:00 +16°C° 0 mm 2 mps 735 mmHg 50%
    03:00 +15°C° 0 mm 1 mps 735 mmHg 51%
    04:00 +15°C° 0 mm 1 mps 735 mmHg 53%
    05:00 +15°C° 0 mm 1 mps 735 mmHg 52%
    06:00 +15°C° 0 mm 1 mps 735 mmHg 51%
    07:00 +15°C° 0 mm 1 mps 735 mmHg 51%
    08:00 +18°C° 0 mm 2 mps 735 mmHg 44%
    09:00 +20°C° 0 mm 3 mps 735 mmHg 37%
    10:00 +23°C° 0 mm 4 mps 736 mmHg 30%
    11:00 +25°C° 0 mm 4 mps 735 mmHg 28%
    12:00 +26°C° 0 mm 4 mps 734 mmHg 26%
    13:00 +27°C° 0 mm 5 mps 734 mmHg 24%
    14:00 +26°C° 0 mm 4 mps 733 mmHg 26%
    15:00 +25°C° 0 mm 4 mps 733 mmHg 28%
    16:00 +24°C° 0 mm 3 mps 733 mmHg 30%
    17:00 +22°C° 0 mm 3 mps 733 mmHg 34%
    18:00 +20°C° 0 mm 4 mps 733 mmHg 38%
    19:00 +19°C° 0 mm 4 mps 733 mmHg 42%
    20:00 +18°C° 0 mm 4 mps 733 mmHg 45%
    21:00 +18°C° 0 mm 4 mps 733 mmHg 48%
    22:00 +17°C° 0 mm 3 mps 732 mmHg 51%
    23:00 +16°C° 0 mm 3 mps 732 mmHg 53%

    1 May, Monday

    Time Temperature Precipitation Wind Pressure Humidity
    00:00 +16°C° 0 mm 3 mps 732 mmHg 56%
    01:00 +15°C° 0 mm 2 mps 732 mmHg 58%
    02:00 +15°C° 0 mm 2 mps 732 mmHg 59%
    03:00 +14°C° 0 mm 2 mps 731 mmHg 60%
    04:00 +14°C° 0 mm 1 mps 731 mmHg 61%
    05:00 +14°C° 0 mm 1 mps 731 mmHg 60%
    06:00 +14°C° 0 mm 1 mps 731 mmHg 59%
    07:00 +14°C° 0 mm 1 mps 732 mmHg 57%
    08:00 +18°C° 0 mm 1 mps 732 mmHg 48%
    09:00 +21°C° 0 mm 1 mps 732 mmHg 39%
    10:00 +23°C° 0 mm 1 mps 732 mmHg 30%
    11:00 +25°C° 0 mm 2 mps 732 mmHg 25%
    12:00 +26°C° 0 mm 3 mps 732 mmHg 21%
    13:00 +28°C° 0 mm 3 mps 732 mmHg 16%
    14:00 +27°C° 0 mm 3 mps 732 mmHg 17%
    15:00 +26°C° 0 mm 2 mps 732 mmHg 18%
    16:00 +24°C° 0 mm 2 mps 731 mmHg 19%
    17:00 +23°C° 0 mm 2 mps 732 mmHg 20%
    18:00 +21°C° 0 mm 2 mps 732 mmHg 22%
    19:00 +20°C° 0 mm 2 mps 732 mmHg 23%
    20:00 +19°C° 0 mm 2 mps 733 mmHg 26%
    21:00 +18°C° 0 mm 2 mps 733 mmHg 29%
    22:00 +17°C° 0 mm 2 mps 733 mmHg 33%
    23:00 +17°C° 0 mm 2 mps 733 mmHg 35%
    Show more